sat.trackr.live / text

‹ back to catalog

ONEWEB-0189

NORAD 48217 · 2021-031H

PAYLOAD ACTIVE UNKNOWN

§ Identity

Operator
Country
UK
Launch date
2021-04-25
Launch site
VOSTO
Launch vehicle
Mass (kg)
RCS (m²)

Purposes: comms

External: N2YO · Heavens-Above · Gunter

§ Orbital elements

Epoch: 2026-05-25T04:12:48.306240Z

Period
109.55 min
Inclination
87.8946°
Eccentricity
0.0001561
Mean motion
13.14501697 rev/d
Perigee alt
1,204.6 km
Apogee alt
1,207.0 km
Semi-major
7,583.9 km
B*
6.4082e-4
RAAN
294.2865°
Arg perigee
106.0528°
Mean anomaly
254.0774°
Rev number
24,520

§ Raw data

ONEWEB-01891 48217U 21031H   26145.17555910  .00000250  00000+0  64082-3 0  99992 48217  87.8946 294.2865 0001561 106.0528 254.0774 13.14501697245206

JSON: /api/v1/satellites/48217 · /tle

For live sub-satellite position, see the globe view (requires WebGL).

§ Visibility from observer

Set your observer location to see the next 7 days of passes ≥ 10°. The values pass through the URL so the page stays shareable.

No JS? Fill the form by hand. The geolocation button needs JavaScript.